Regional Weather Roundup
Issued by NWS Sterling, VA

Home | Current Version | Previous Version | Graphics & Text | Print | Product List | Glossary On
Versions: 1 2 3 4 5 6 7 8 9 10 11 12 13 14 15 16 17 18 19 20 21 22 23 24 25 26 27
000
ASUS41 KLWX 231810
RWRLWX

REGIONAL WEATHER ROUNDUP
NATIONAL WEATHER SERVICE BALTIMORE MD/WASHINGTON DC
100 PM EST THU FEB 23 2017

Note: "FAIR" indicates few or no clouds below 12,000 feet
with no significant weather and/or obstructions to visibility.
 TC=TEMPERATURE CELSIUS

 * =Non NWS site. Station does not report precipitation (e.g. rain,
    snow, etc.), thunder, or fog.

DCZ001-MDZ009-015-VAZ040>042-051-053>054-231900-
WASHINGTON METRO

CITY           SKY/WX    TMP DP  RH WIND       PRES   REMARKS
WASHINGTON NAT MOSUNNY   68  55  63 S13       29.85F
DULLES         MOSUNNY   73  53  49 S10       29.84F
ANDREWS AFB    SUNNY     73  54  51 SW14      29.84F
FT BELVOIR     SUNNY     73  54  52 S8        29.85F
QUANTICO       MOSUNNY   64  54  69 SW7       29.86F
COLLEGE PARK*  SUNNY     72  54  53 S8        29.84F
LEESBURG*      SUNNY     77  55  47 MISG      29.83F
MANASSAS*      SUNNY     75  54  47 S8        29.84F
GAITHERSBURG*  SUNNY     73  52  46 SW7       29.87F

$$

MDZ006>007-011-014-231900-
BALTIMORE METRO

CITY           SKY/WX    TMP DP  RH WIND       PRES   REMARKS
BWI AIRPORT    MOSUNNY   75  54  47 SW6       29.83F
MD SCIENCE CTR   N/A     69  52  54 MISG      29.84F
MARTIN STATE   MOSUNNY   64  55  72 SE9       29.87F
ANNAPOLIS      SUNNY     54  50  86 SE13      29.85F
FORT MEADE*    SUNNY     73  52  46 SW7       29.85F

$$

MDZ012-015-019>023-231900-
MARYLAND EASTERN SHORE

CITY           SKY/WX    TMP DP  RH WIND       PRES   REMARKS
OCEAN CITY     CLOUDY    55  49  80 S10       29.90F
SALISBURY      MOSUNNY   71  53  52 SW17G24   29.89F
BAY BRIDGE AP* SUNNY     68  54  60 S13       29.85F
CAMBRIDGE*     SUNNY     70  55  60 SW9G18    29.88F
EASTON*        SUNNY     70  54  56 SW14      29.91F

$$

MDZ017>025-231900-
SOUTHERN MARYLAND

CITY           SKY/WX    TMP DP  RH WIND       PRES   REMARKS
PATUXENT RIVER PTSUNNY   71  56  58 SW10G17   29.87F
ST INIGOES     MOSUNNY   72  54  53 S12       29.87F
LEONARDTOWN*   MOSUNNY   70  54  56 SW13      29.88F

$$

MDZ003>005-231900-
NORTH CENTRAL MARYLAND

CITY           SKY/WX    TMP DP  RH WIND       PRES   REMARKS
FREDERICK*     SUNNY     73  55  53 SW9       29.85F
HAGERSTOWN APT MOSUNNY   72  53  51 W7        29.82F
WESTMINSTER*   SUNNY     72  54  53 SW12G20   29.83F

$$

MDZ501>502-231900-
WESTERN MARYLAND

CITY           SKY/WX    TMP DP  RH WIND       PRES   REMARKS
OAKLAND*       CLOUDY    52  52 100 SW9       29.88F FOG
CUMBERLAND*    MOSUNNY   73  52  46 S5        29.85F

$$

VAZ025>031-231900-
SHENANDOAH VALLEY

CITY           SKY/WX    TMP DP  RH WIND       PRES   REMARKS
WINCHESTER*    SUNNY     73  50  43 SW8       29.82F
FRONT ROYAL*   SUNNY     75  50  41 S7        29.82F
LURAY*         SUNNY     73  54  49 SW8       29.84F
NEW MARKET*    SUNNY     73  51  45 S8        29.83F
STAUNTON*      SUNNY     70  53  53 S7        29.88F
WAYNESBORO*    MOSUNNY   70  50  50 NW3       29.88F

$$

WVZ021-048>050-054>055-231900-
EASTERN WEST VIRGINIA PANHANDLE

CITY           SKY/WX    TMP DP  RH WIND       PRES   REMARKS
MARTINSBURG    MOSUNNY   75  50  41 SW6       29.80F
PETERSBURG*    CLOUDY    73  54  50 W10       29.82F

$$

VAZ036>039-050-231900-
CENTRAL FOOTHILLS

CITY           SKY/WX    TMP DP  RH WIND       PRES   REMARKS
CHARLOTTESVILL SUNNY     76  54  46 S12       29.86F
CULPEPER*      SUNNY     73  55  51 SW10      29.86F
ORANGE*        SUNNY     73  52  46 CALM      29.87F
GORDONSVILLE*  MOSUNNY   74  55  50 S12       29.85F
WARRENTON*     SUNNY     76  49  37 SW9       29.84F

$$

VAZ055>057-231900-
NORTH AND CENTRAL PIEDMONT

CITY           SKY/WX    TMP DP  RH WIND       PRES   REMARKS
FREDERICKSBRG* SUNNY     74  57  55 S6        29.86F
STAFFORD*      SUNNY     72  54  53 SW8       29.90F

$$

NCZ024-NYZ072-PAZ021-071-VAZ022-071-231900-
OTHER REGIONAL OBSERVATIONS

CITY           SKY/WX    TMP DP  RH WIND       PRES   REMARKS
NEW YORK CITY  MOSUNNY   57  49  74 W9        29.87F
PHILADELPHIA   MOSUNNY   65  53  65 W7        29.85F
PITTSBURGH     CLOUDY    64  55  72 SW8       29.80F
ROANOKE        MOSUNNY   70  52  52 CALM      29.91F
RICHMOND       MOSUNNY   73  53  49 S14       29.89F
RALEIGH        MOSUNNY   72  51  47 SE9       29.91F

$$

ANZ530>537-231900-
MARINE OBSERVATIONS

STATION/POSITION TIME  TEMP    WIND        PRES
                       AIR SEA DIR/SP/G
                 (UTC) (F)     (DEG/KT/KT) (MB)
THOMAS PT LIGHT  1800   54 43  160/ 17/ 17   N/A
BALT KEY BRIDGE  1742   57     100/ 10/ 10 1010.6F
COVE POINT       1742   49     180/  5/  7 1012.5F
LEWISETTA        1742   69 49  230/ 16/ 22 1011.5F
SOLOMONS ISLAND  1742   65 45  220/ 14/ 19   N/A
PINEY POINT      1748          230/ 12/ 13   N/A

$$





USA.gov is the U.S. government's official web portal to all federal, state and local government web resources and services.